Irving South's Hourly Summary for Monday, April 17, 2017
Hour Temp
(f)
RH
(%)
Solar Rad.
(MJ/m2)
Rainfall
(in)
Wind
(mph)
4/17/2017 12:00 AM 70 76 0 0 0
4/17/2017 1:00 AM 69 77 0 0 0
4/17/2017 2:00 AM 69 77 0 0 0.11
4/17/2017 3:00 AM 70 75 0 0 1.15
4/17/2017 4:00 AM 70 77 0 0 0.29
4/17/2017 5:00 AM 69 77 0 0 0.54
4/17/2017 6:00 AM 69 77 0 0 0.73
4/17/2017 7:00 AM 68 80 0 0 0.21
4/17/2017 8:00 AM 68 81 0.08 0 0.4
4/17/2017 9:00 AM 68 78 0.3 0 1.07
4/17/2017 10:00 AM 70 73 0.57 0 1.73
4/17/2017 11:00 AM 71 72 0.46 0 1.78
4/17/2017 12:00 PM 71 71 0.63 0.05 0.68
4/17/2017 1:00 PM 72 65 1.59 0 1.8
4/17/2017 2:00 PM 68 65 0.2 0.56 3.87
4/17/2017 3:00 PM 64 91 0.12 0.97 4.01
4/17/2017 4:00 PM 63 87 0.14 0.23 4.66
4/17/2017 5:00 PM 62 88 0.06 0.1 1.93
4/17/2017 6:00 PM 62 89 0.07 0.08 0.64
4/17/2017 7:00 PM 62 84 0.06 0 1.63
4/17/2017 8:00 PM 62 83 0.03 0 0.32
4/17/2017 9:00 PM 62 87 0 0 0.85
4/17/2017 10:00 PM 63 80 0 0 3.9
4/17/2017 11:00 PM 63 80 0 0 1.54
Data Summary 66 78 4.31 1.99 1.41